Other Public Products
Issued by NWS Grand Forks, ND

Home | Current Version | Previous Version | Text Only | Print | Product List | Glossary On
Versions: 1 2 3 4 5 6 7 8 9 10 11 12 13 14 15 16 17 18 19 20 21 22 23 24 25 26 27 28 29 30 31 32 33 34 35 36 37 38 39 40 41 42 43 44 45 46 47 48 49 50
000
FPUS83 KFGF 171010
OPUFGF
PRAIRIE TO PINES WEATHER ROUNDUP
NATIONAL WEATHER SERVICE EASTERN NORTH DAKOTA/GRAND FORKS ND
500 AM CDT WED SEP 17 2014

 **SATELLITE DATA USED TO AUGMENT SKY COVER AT AUTOMATED STATIONS**
 *****  WEATHER ACROSS EASTERN NORTH DAKOTA  *****

CITY           SKY/WX    TMP DP  RH WIND       PRES   REMARKS
GRAND FORKS    CLEAR     44  41  89 CALM      29.89S
GRAND FORKS AF CLEAR     43  43  98 W3        29.89S
GRAND CITY NWS   N/A     45 N/A N/A SW2         N/A
BUXTON         NOT AVBL
DEVILS LAKE    CLEAR     46  39  76 CALM      29.90S
FARGO          CLEAR     49  45  86 S7        29.89S
WAHPETON ARPT  SUNNY     45  43  93 SE3       29.91S
$$

 *****  WEATHER ACROSS CENTRAL AND WESTERN NORTH DAKOTA  *****

CITY           SKY/WX    TMP DP  RH WIND       PRES   REMARKS
JAMESTOWN      CLEAR     42  40  92 NW3       29.91S
BISMARCK       CLEAR     43  42  97 CALM      29.94S
MINOT          CLEAR     48  41  76 SW12      29.91S
MINOT AFB      CLEAR     41  39  93 SW2       29.92S
GARRISON         N/A     40  38  93 N5        29.93S
WILLISTON      CLEAR     40  37  89 CALM      29.93S FOG
DICKINSON      PTCLDY    44  40  85 CALM      29.93F
HETTINGER      CLEAR     40  38  93 W5        29.95S
$$

 *****  OTHER OBSERVATIONS NORTHEAST NORTH DAKOTA  *****

CITY           SKY/WX    TMP DP  RH WIND       PRES   REMARKS
WALHALLA       FAIR      46  46 100 NW6       29.94S
LANGDON        FAIR      46  43  87 NE7       29.93S
CAVALIER       FAIR      46  45  93 NW3       29.92F
GRAFTON        FAIR      48  41  76 N3        29.91R
CANDO          FAIR      41  39  93 N8G18     29.93R
FORT TOTTEN      N/A     47  43  86 CALM      29.95
ROLLA          FAIR      45  45 100 N9        29.96R
RUGBY          FAIR      45  45 100 CALM      29.92S
 ***** THE ABOVE OBSERVATIONS ARE NON NWS ARE NOT QUALITY
        CONTROLLED AND MAY MIS-REPORT RAIN FOR SNOW...
$$

 *****  OTHER OBSERVATIONS SOUTHEAST NORTH DAKOTA *****

CITY           SKY/WX    TMP DP  RH WIND       PRES   REMARKS
COOPERSTOWN    NOT AVBL
VALLEY CITY    FAIR      46  46 100 NW3       29.91S
OAKES            N/A     45  45 100 CALM      29.91S FOG
GWINNER        SUNNY     48  48 100 W7        29.92S
SHEYENNE NWR     N/A     42  41  97 W2        29.95S
BUFFALO        NOT AVBL
WYNDMERE         N/A     45  46 100 SW2         N/A
 ***** THE ABOVE OBSERVATIONS ARE NON NWS ARE NOT QUALITY
       CONTROLLED AND MAY MIS-REPORT RAIN FOR SNOW...
$$

  *****  WEATHER ACROSS NORTHERN MINNESOTA  *****

CITY           SKY/WX    TMP DP  RH WIND       PRES   REMARKS
FLAG ISLAND    CLOUDY    52  46  82 NE12      29.91R
WARROAD        CLOUDY    48  45  87 CALM      29.91F
ROSEAU         MOCLDY    45  39  81 S3        29.91S
HALLOCK        PTCLDY    46  43  87 CALM      29.90F
THF RVR FALLS  PTCLDY    46  43  87 CALM      29.90S
HALSTAD          N/A     41  39  92 E2          N/A
FOSSTON        CLEAR     45  41  87 CALM      29.91S
BAUDETTE       MOCLDY    50  45  83 W6        29.90F
WASKISH        PTCLDY    50  46  87 NW5       29.93R
CROOKSTON      PTCLDY    43  41  93 CALM      29.90F
$$
  *****  WEATHER ACROSS CENTRAL AND WEST MINNESOTA  *****

CITY           SKY/WX    TMP DP  RH WIND       PRES   REMARKS
BEMIDJI        CLEAR     42  39  90 CALM      29.90F
PARK RAPIDS    CLEAR     44  41  89 CALM      29.91F
WADENA         CLEAR     41  41 100 CALM      29.91F
DETROIT LAKES  CLEAR     50  46  87 CALM      29.92S
MOORHEAD       CLEAR     52  50  93 S3        29.90S
FERGUS FALLS   CLEAR     52  46  82 SE5       29.91S
ELBOW LAKE     FAIR      51  48  89 SE3       29.91S
MORRIS MN      CLEAR     48  46  93 SE6       29.90S
STAPLES        CLEAR     41  39  93 CALM      29.91F
WHEATON        CLEAR     43  43 100 E3        29.92S
$$
  *****  WEATHER ELSEWHERE ACROSS MINNESOTA  *****

CITY           SKY/WX    TMP DP  RH WIND       PRES   REMARKS
DULUTH         PTCLDY    48  41  76 W5        29.92F
INTRNTL FALLS  CLOUDY    50  45  83 SW5       29.89F
ELY            CLOUDY    50  45  81 S5        29.89F
CLOQUET        CLEAR     43  41  93 SW3       29.93S
BRAINERD       CLEAR     44  43  96 CALM      29.92F
HIBBING        PTCLDY    38  36  92 CALM      29.91F
ALEXANDRIA     PTCLDY    50  47  89 S3        29.93S
SAINT CLOUD    CLEAR     50  47  89 CALM      29.93F
MINNEAPOLIS    CLOUDY    58  47  66 SW5       29.95F
$$

  *****  WEATHER ACROSS SOUTH DAKOTA  *****

CITY           SKY/WX    TMP DP  RH WIND       PRES   REMARKS
SIOUX FALLS    PTCLDY    55  49  80 S3        29.92F
BROOKINGS      NOT AVBL
WATERTOWN      CLEAR     50  47  89 S7        29.91F
HURON          PTCLDY    50  49  96 VRB3      29.90S
SISSETON         N/A     54  51  90 CALM      29.89S
ABERDEEN       PTCLDY    42  42 100 CALM      29.91S
MITCHELL       CLEAR     49  48  97 SE3       29.90F
PIERRE         CLEAR     49  47  93 NE3       29.88F
MOBRIDGE       CLEAR     47  46  97 CALM      29.90R
RAPID CITY     CLEAR     57  41  55 NW10      29.94R
$$

  *****  SOME WEATHER IN NEARBY STATES *****

CITY           SKY/WX    TMP DP  RH WIND       PRES   REMARKS
GLASGOW MT     PTCLDY    50  39  66 E9        29.89S
GREAT FALLS MT MOCLDY    55  47  74 S5        29.91F
CHEYENNE WY    CLEAR     55  35  47 W9        30.12F
SCOTTSBLUFF NE PTCLDY    52  46  80 NW5       29.99R
OMAHA NE       MOCLDY    61  53  75 SE6       29.94F
DES MOINES IA  CLOUDY    56  50  80 S7        29.98F
DAVENPORT IA   MOCLDY    47  43  86 SE5       30.04S
CHICAGO IL     PTCLDY    50  44  80 CALM      30.04F
EAU CLAIRE WI  MOCLDY    43  42  97 CALM      29.97F
LA CROSSE WI   CLOUDY    49  46  90 SE6       30.00F FOG
$$

  *****  SOME NATIONAL WEATHER *****

CITY           SKY/WX    TMP DP  RH WIND       PRES   REMARKS
LA GUARDIA NY  PTCLDY    60  51  72 NW3       30.03R
RALEIGH NC     CLOUDY    67  64  90 NE6       29.97R
ATLANTA GA     PTCLDY    68  65  90 NW7       29.97S
NEW ORLEANS LA CLOUDY    75  71  87 CALM      29.96F
OKLAHOMA CITY  PTCLDY    70  67  90 S5        29.97F
ALBUQUERQUE NM CLOUDY    63  54  72 CALM      30.18F
SALT LAKE CITY PTCLDY    74  42  31 S14       29.94F
LOS ANGELES CA CLEAR     74  64  71 W6        29.72F
BOISE ID       CLOUDY    73  42  32 SE12      29.82S
SEATTLE WA     CLOUDY    60  54  80 CALM      29.85F
$$

*** WEATHER ACROSS MANITOBA...SASKATCHEWAN AND ONTARIO ***
                ***ONTARIO***

CITY           SKY/WX    TMP DP  RH WIND       PRES   REMARKS
GERALDTON      LGT SNOW  30  30 100 E3        30.04F VSB 3/4
THUNDER BAY    LGT RAIN  45  41  87 NE8       29.96R
SIOUX LOOKOUT  FLURRIES  36  34  93 NE5       29.99R
TORONTO        CLEAR     46  43  87 W7        30.03R
BIG TROUT LK   CLOUDY    34  27  75 VRB2      30.06S
PICKLE LAKE    NOT AVBL
DRYDEN         CLOUDY    37  37 100 E7        29.95R
KENORA         CLOUDY    39  37  93 NE12G20   29.95R
$$
                *** MANITOBA***

CITY           SKY/WX    TMP DP  RH WIND       PRES   REMARKS
BRANDON        MOCLDY    45  43  93 E14       29.99R
DAUPHIN        CLOUDY    43  41  93 E9        30.05R
ISLAND LAKE    CLEAR     30  28  93 N6        30.12R WCI  24
PILOT MOUND      N/A     45  43  93 NE8         N/A
THE PAS        CLOUDY    36  34  93 E5        30.13S
THOMPSON       PTCLDY    18  18 100 CALM      30.16R
WINNIPEG       CLOUDY    45  43  93 N12       29.98R
LYNN LAKE      CLEAR     23  21  93 E2        30.16S
CHURCHILL      FLURRIES  34  25  69 NW16G23   30.10R WCI  23
GILLAM         CLOUDY    32  28  86 NW16      30.14R WCI  21
$$
                ***SASKATCHEWAN***

CITY           SKY/WX    TMP DP  RH WIND       PRES   REMARKS
ESTEVAN        CLEAR     45  41  87 SW2       29.93S
KINDERSLEY     CLEAR     48  43  81 E9        29.89F
LLOYDMINSTER   CLEAR     46  45  93 E9        29.90S
PRINCE ALBERT  CLOUDY    39  37  93 E7        30.03S FOG
REGINA         CLEAR     48  45  87 E9        29.92S



USA.gov is the U.S. government's official web portal to all federal, state and local government web resources and services.